Terminal Aerodrome Forecast
Issued by NWS Spokane, WA

Home | Current Version | Previous Version | Text Only | Print | Product List | Glossary On
Versions: 1 2 3 4 5 6 7 8 9 10 11 12 13 14 15 16 17 18 19 20 21 22 23 24 25 26
000
FTUS46 KOTX 231730
TAFLWS
TAF
KLWS 231730Z 2318/2418 09004KT P6SM VCSH BKN120 BKN200
     FM232000 31007KT P6SM VCSH SCT090 BKN150
     FM240100 VRB04KT P6SM SCT120=

USA.gov is the U.S. government's official web portal to all federal, state and local government web resources and services.